www.pogodaiklimat.ru

Погода и климат >> Архив погоды >> Финляндия >> Аэропорт Пирккала


ПОГОДА в Аэропорту Пирккала

  • Прогноз погоды в Аэропорту Пирккала
  • Монитор погоды в Аэропорту Пирккала

АРХИВ ПОГОДЫ в Аэропорту Пирккала

Время (UTC), дата Ветер
(напр.,м/с)
 
Видим.   Явления Облачность Т
(С)
Тd
(С)
f
(%)
Тe
(С)
Тes
(С)
Комфортность P
(гПа)
Po
(гПа)
Тmin
(С)
Tmax
(С)
R
(мм)
R24
(мм)
S
(см)
13 18.06 З 7 30 км ясно +23.3 +9.3 41 +25 +28 комфорт 1013.5 999.7
14 18.06 З 6 30 км ясно +22.9 +9.0 41 +24 +28 комфорт 1013.6 999.8
15 18.06 З 6 25 км 1/0
[]
+22.6 +9.1 42 +24 +26 комфорт 1013.7 999.9
16 18.06 З 7 40 км ясно +21.8 +9.0 44 +23 +24 комфорт 1013.6 999.7
17 18.06 З 6 35 км ясно +21.3 +8.9 45 +23 +23 комфорт 1013.5 999.6
18 18.06 З 4 30 км ясно +20.6 +9.8 50 +22 +23 комфорт 1013.3 999.4 +18.5 +23.6
19 18.06 З 3 40 км ясно +19.5 +10.0 54 +21 +21 комфорт 1013.3 999.3
20 18.06 Ю 2 40 км ясно +17.4 +10.1 62 +18 +18 1013.4 999.3
21 18.06 Ю 3 45 км ясно +17.1 +10.3 64 +17 +17 1013.5 999.4
22 18.06 Ю 3 35 км ясно +16.3 +10.6 69 +16 +16 1013.5 999.4
23 18.06 Ю 4 50 км ясно +16.2 +11.8 75 +15 +15 1013.4 999.3
00 19.06 Ю 3 45 км 4/4
[]
+15.5 +11.7 78 +15 +15 1013.6 999.4
01 19.06 Ю 3 45 км 4/4
[]
+15.5 +11.5 77 +15 +15 1013.5 999.3
02 19.06 Ю 3 50 км 9/9
[]
+15.8 +11.6 76 +15 +15 1013.0 998.9
03 19.06 З 2 40 км 9/0 1500 м
[]
+16.0 +11.6 75 +16 +16 1013.1 999.0
04 19.06 Ю 3 40 км 6/4 1500 м
[]
+16.4 +11.4 72 +16 +17 1012.7 998.6
05 19.06 Ю 6 40 км 1/1
[]
+17.4 +11.7 69 +17 +18 1012.7 998.6
06 19.06 ЮЗ 7 40 км 6/6 2000 м
[]
+18.2 +12.2 68 +18 +18 1012.7 998.7 +15.2 +20.6
07 19.06 ЮЗ 6 15 км слаб. ливневой дождь 6/1 600 м
[]
+17.7 +12.8 73 +17 +19 1012.6 998.5
08 19.06 Ю 5 35 км 1/0
[]
+19.1 +14.2 73 +20 +26 1012.4 998.4
09 19.06 ЮЗ 6 40 км 1/0
[]
+21.6 +14.0 62 +24 +29 комфорт 1012.1 998.2
10 19.06 ЮЗ 6 35 км 4/1 1000 м
[]
+22.4 +13.5 57 +25 +30 комфорт 1011.7 997.9
11 19.06 ЮЗ 6 40 км 6/4 1000 м
[]
+23.0 +13.5 55 +26 +29 жарко 1011.6 997.8
12 19.06 ЮЗ 4 25 км ливневой дождь 4/4 1000 м
[]
+21.3 +15.6 70 +25 +30 комфорт 1011.9 998.0
13 19.06 ЮЗ 4 35 км 6/6 1500 м
[]
+20.2 +16.3 78 +23 +26 комфорт 1011.9 998.0
14 19.06 ЮЗ 2 35 км 1/1 1500 м
[]
+22.4 +15.8 66 +26 +34 жарко 1011.5 997.7
15 19.06 ЮЗ 3 35 км 4/4 1000 м
[]
+22.4 +15.3 64 +26 +29 жарко 1011.0 997.2
16 19.06 З 5 30 км слаб. дождь 6/1 1000 м
[]
+21.9 +14.1 61 +25 +26 комфорт 1011.1 997.3
17 19.06 З 3 45 км 1/0 1000 м
[]
+21.7 +14.6 64 +25 +26 комфорт 1011.1 997.3
18 19.06 ЮЗ 3 40 км 4/4 1000 м
[]
+20.9 +13.4 62 +24 +24 комфорт 1011.3 997.4 +16.9 +23.6
19 19.06 З 3 15 км дождь 9/9 600 м
[]
+18.5 +15.8 84 +19 +19 1011.9 997.9
20 19.06 штиль 0 8000 м 6/6 600 м
[]
+16.4 +16.4 100 +16 +16 1012.3 998.2
21 19.06 ЮЗ 1 30 км ясно +16.5 +14.7 89 +17 +17 1012.5 998.4
22 19.06 штиль 0 5000 м дымка ясно +14.5 +14.5 100 +14 +14 1012.6 998.4
23 19.06 штиль 0 100 м туман 4/0 1500 м
[]
+13.3 +13.3 100 +13 +13 1012.6 998.3
00 20.06 штиль 0 5000 м туман ясно +12.8 +12.8 100 +12 +12 1012.8 998.5
01 20.06 штиль 0 10 км туман 4/4 2000 м
[]
+12.1 +12.1 100 +11 +11 1012.8 998.5
02 20.06 штиль 0 10 км ясно +12.0 +12.0 100 +11 +11 1012.9 998.6
03 20.06 штиль 0 20 км ясно +12.8 +12.8 100 +12 +13 1012.6 998.3
04 20.06 ЮВ 1 35 км ясно +15.8 +13.6 87 +16 +19 1012.2 998.1
05 20.06 Ю 1 30 км 9/9 2000 м
[]
+16.2 +14.0 87 +17 +17 1012.5 998.4
06 20.06 ЮВ 2 35 км 9/9
[]
+17.1 +14.0 82 +17 +18 1012.3 998.2 +11.7 +20.9
07 20.06 ЮВ 3 40 км 9/9
[]
+18.4 +14.3 77 +19 +20 1012.0 998.0
08 20.06 Ю 3 35 км 6/6
[]
+20.9 +15.2 70 +24 +28 комфорт 1011.7 997.8
09 20.06 Ю 3 40 км 1/0
[]
+24.2 +13.8 52 +26 +37 жарко 1011.2 997.5
10 20.06 Ю 4 40 км 4/1 1500 м
[]
+24.8 +12.1 45 +26 +33 жарко 1010.8 997.1
11 20.06 Ю 5 30 км 1/1 1500 м
[]
+25.4 +11.2 41 +27 +33 жарко 1010.7 997.0
12 20.06 Ю 4 25 км 1/0
[]
+25.8 +10.4 38 +27 +35 жарко 1010.3 996.7
13 20.06 Ю 4 30 км 1/0
[]
+25.8 +10.4 38 +27 +31 жарко 1009.8 996.2
14 20.06 Ю 3 30 км 6/6 2000 м
[]
+24.8 +11.1 42 +26 +29 жарко 1009.6 995.9
15 20.06 ЮВ 1 45 км 9/1 600 м
[]
+24.2 +11.6 45 +26 +29 жарко 1008.9 995.2
16 20.06 ЮВ 3 40 км 9/9 2000 м
[]
+25.2 +11.4 42 +27 +27 жарко 1008.2 994.6
17 20.06 Ю 3 45 км 9/9 2000 м
[]
+25.1 +11.3 42 +26 +26 жарко 1008.0 994.4
18 20.06 Ю 3 40 км 6/6 2000 м
[]
+24.6 +12.2 46 +26 +26 жарко 1008.1 994.4 +17.1 +26.5
19 20.06 ЮВ 3 40 км 1/0
[]
+23.1 +11.8 49 +26 +26 жарко 1008.1 994.4
20 20.06 ЮВ 2 50 км 1/1
[]
+21.1 +12.3 57 +23 +23 комфорт 1007.9 994.1
21 20.06 Ю 2 35 км 4/0
[]
+20.5 +12.7 61 +23 +23 комфорт 1008.1 994.2
22 20.06 Ю 3 45 км 1/1 1000 м
[]
+20.2 +13.0 63 +23 +23 комфорт 1008.1 994.2
23 20.06 Ю 3 35 км 1/0
[]
+19.3 +13.5 69 +21 +21 комфорт 1007.6 993.7
00 21.06 Ю 2 35 км ясно +17.8 +13.3 75 +18 +18 1007.7 993.7
01 21.06 Ю 3 40 км 1/1
[]
+17.4 +13.9 80 +17 +17 1007.6 993.6
02 21.06 Ю 2 40 км ясно +17.2 +14.3 83 +18 +18 1007.7 993.7
03 21.06 Ю 3 35 км ясно +18.1 +14.4 79 +18 +19 1007.2 993.2
04 21.06 Ю 2 30 км ясно +18.7 +14.6 77 +20 +22 1006.8 992.9
05 21.06 Ю 3 40 км 1/1
[]
+19.8 +15.3 75 +22 +25 комфорт 1006.8 992.9
06 21.06 Ю 4 35 км 4/1
[]
+21.0 +15.8 72 +25 +28 комфорт 1006.5 992.7 +17.0 +24.6
07 21.06 Ю 4 30 км 4/4
[]
+21.0 +16.0 73 +25 +28 комфорт 1006.5 992.7
08 21.06 ЮЗ 4 30 км 6/1 600 м
[]
+22.7 +16.7 69 +27 +32 душно 1006.6 992.9
09 21.06 Ю 4 30 км 6/6 600 м
[]
+23.8 +16.8 65 +27 +31 жарко 1007.0 993.3
10 21.06 ЮЗ 4 35 км 6/4 600 м
[]
+23.1 +16.2 65 +28 +32 душно 1007.0 993.3
11 21.06 Ю 5 40 км 6/1 1000 м
[]
+23.1 +15.2 61 +27 +32 душно 1007.1 993.4
12 21.06 ЮЗ 7 30 км 1/0 1500 м
[]
+24.8 +14.9 54 +28 +31 жарко 1006.8 993.2
13 21.06 З 6 30 км 4/4 1000 м
[]
+24.3 +15.0 56 +27 +30 жарко 1007.3 993.6
14 21.06 З 6 50 км 1/1 1500 м
[]
+23.7 +13.9 54 +26 +29 жарко 1007.3 993.6
15 21.06 З 6 30 км 1/0 1000 м
[]
+23.0 +13.8 56 +26 +29 жарко 1007.6 993.9
16 21.06 З 6 45 км ясно +22.8 +12.8 53 +26 +27 жарко 1007.5 993.8
17 21.06 З 6 40 км ясно +22.1 +11.8 52 +24 +25 комфорт 1007.7 993.9
18 21.06 З 5 45 км ясно +20.5 +9.8 50 +22 +22 комфорт 1008.1 994.2 +20.5 +25.2
19 21.06 З 4 45 км ясно +19.5 +7.6 46 +20 +20 1008.3 994.4
20 21.06 З 2 45 км ясно +17.0 +8.7 58 +17 +17 1008.6 994.6
21 21.06 Ю 1 30 км 6/6 1000 м
[]
+14.9 +9.5 70 +15 +15 1009.0 994.9
22 21.06 Ю 2 45 км 1/1 1000 м
[]
+14.6 +9.6 72 +14 +14 1009.2 995.0
23 21.06 Ю 2 45 км ясно +15.0 +9.2 68 +15 +15 1009.4 995.3
00 22.06 Ю 3 45 км ясно +14.1 +10.3 78 +13 +13 1009.5 995.3
01 22.06 Ю 3 50 км ясно +13.6 +9.7 77 +12 +12 1009.4 995.2
02 22.06 Ю 3 45 км ясно +13.3 +9.0 75 +12 +12 1009.3 995.1
03 22.06 Ю 3 40 км ясно +14.0 +8.2 68 +13 +14 1009.1 994.9
04 22.06 Ю 6 45 км 6/4 1500 м
[]
+14.3 +7.8 65 +12 +13 1009.8 995.6
05 22.06 Ю 4 40 км 9/1 1500 м
[]
+12.1 +10.0 87 +10 +11 1009.9 995.6
06 22.06 ЮЗ 5 35 км 6/6
[]
+13.6 +10.0 79 +12 +13 1009.7 995.5 +12.1 +20.5
07 22.06 Ю 6 30 км 1/0 600 м
[]
+15.0 +8.9 67 +13 +17 1009.5 995.4
08 22.06 ЮЗ 7 35 км 6/6 1000 м
[]
+16.6 +8.1 57 +15 +17 1009.8 995.7
09 22.06 З 9 40 км 9/9 1000 м
[]
+17.2 +7.8 54 +16 +16 1010.4 996.4
10 22.06 ЮЗ 10 30 км 1/1 1000 м
[]
+16.9 +7.3 53 +15 +16 1011.1 997.0
11 22.06 З 9 30 км 9/9 1000 м
[]
+17.3 +8.2 55 +16 +16 1011.6 997.5
12 22.06 З 9 35 км 6/6 1000 м
[]
+16.5 +7.2 54 +15 +15 1012.6 998.5
13 22.06 З 8 40 км 9/9 1000 м
[]
+14.7 +6.8 59 +13 +13 1014.0 999.8
14 22.06 З 6 30 км 6/6 600 м
[]
+15.1 +6.7 57 +14 +15 1015.1 1000.9
15 22.06 З 7 40 км 4/4 1000 м
[]
+16.1 +5.4 49 +15 +16 1015.5 1001.3
16 22.06 З 7 35 км 1/1 1000 м
[]
+16.6 +5.0 46 +15 +16 1015.8 1001.7
17 22.06 З 7 50 км 1/1 1000 м
[]
+16.4 +5.7 49 +15 +16 1016.0 1001.8
18 22.06 З 7 40 км 1/1 1000 м
[]
+15.7 +5.9 52 +14 +14 1016.6 1002.4 +13.6 +17.6
19 22.06 З 6 50 км ясно +15.0 +5.8 54 +13 +14 1016.8 1002.6
20 22.06 З 6 50 км ясно +14.1 +5.5 56 +12 +12 1017.2 1002.9
21 22.06 З 6 45 км ясно +13.1 +5.8 61 +11 +11 1018.0 1003.6
22 22.06 З 4 45 км ясно +12.5 +5.9 64 +11 +11 1018.4 1004.0
23 22.06 З 3 50 км ясно +11.2 +6.7 74 +9 +9 1019.0 1004.5
00 23.06 З 3 40 км ясно +10.5 +7.2 80 +8 +8 1019.3 1004.8
01 23.06 З 3 50 км ясно +9.9 +7.3 84 +8 +8 1019.8 1005.3
02 23.06 З 3 45 км ясно +8.7 +7.5 92 +6 +6 1020.3 1005.7
03 23.06 З 3 45 км ясно +11.1 +8.5 84 +9 +10 1020.7 1006.2
04 23.06 З 3 45 км ясно +12.1 +8.8 80 +11 +12 1020.9 1006.5
05 23.06 З 4 40 км ясно +13.7 +6.6 62 +12 +15 1021.4 1007.0
06 23.06 З 5 45 км ясно +14.8 +5.1 52 +13 +17 1021.4 1007.1 +8.1 +15.7
07 23.06 З 5 40 км ясно +15.9 +3.7 44 +15 +20 1021.6 1007.3
08 23.06 З 4 35 км ясно +17.4 +4.7 43 +17 +25 1021.7 1007.5
09 23.06 З 5 40 км ясно +17.8 +2.2 35 +17 +24 1021.7 1007.5
10 23.06 З 4 40 км 1/0 1500 м
[]
+18.9 +3.9 37 +19 +28 1021.7 1007.6
11 23.06 СЗ 4 35 км 4/1 1500 м
[]
+19.6 +3.3 34 +20 +27 1021.5 1007.4
12 23.06 СЗ 3 35 км 9/1 1500 м
[]
+19.5 +4.1 36 +20 +25 1021.6 1007.5
13 23.06 З 4 45 км 4/4 2000 м
[]
+19.8 +3.1 33 +20 +25 1021.4 1007.3
14 23.06 З 4 40 км 1/1
[]
+20.6 +3.4 32 +21 +26 комфорт 1020.9 1006.9
15 23.06 З 3 35 км 1/0 2000 м
[]
+20.0 +3.7 34 +21 +25 комфорт 1020.8 1006.7
16 23.06 З 4 35 км 4/1 2000 м
[]
+19.9 +3.6 34 +20 +22 1020.8 1006.7
17 23.06 З 4 40 км 1/0 1500 м
[]
+19.5 +4.1 36 +20 +21 1021.0 1006.9
18 23.06 З 3 45 км 4/0
[]
+18.2 +4.4 40 +18 +19 1020.9 1006.8 +14.8 +20.9
19 23.06 З 2 50 км 6/0
[]
+17.8 +4.7 42 +18 +18 1021.1 1006.9
20 23.06 З 2 50 км 9/0
[]
+16.2 +5.8 50 +16 +16 1021.3 1007.1
21 23.06 З 2 50 км ясно +13.4 +6.5 63 +13 +13 1022.2 1007.8
22 23.06 З 3 50 км ясно +14.3 +7.1 62 +13 +13 1022.7 1008.3
23 23.06 З 3 50 км ясно +13.4 +6.7 64 +12 +12 1023.1 1008.7
00 24.06 З 1 50 км 4/0 2000 м
[]
+11.7 +6.4 70 +12 +12 1024.0 1009.5
01 24.06 штиль 0 50 км ясно +8.1 +6.2 88 +7 +7 1024.5 1009.8
02 24.06 штиль 0 50 км ясно +8.1 +6.4 89 +7 +7 1025.0 1010.3
03 24.06 З 1 40 км ясно +11.6 +6.9 73 +12 +12 1025.3 1010.8
04 24.06 З 2 45 км ясно +13.4 +7.6 68 +13 +15 1025.3 1010.9
05 24.06 З 3 35 км ясно +14.2 +8.2 67 +13 +17 1025.7 1011.3
06 24.06 З 4 40 км ясно +15.8 +9.0 64 +15 +19 1026.0 1011.7 +7.3 +18.2
07 24.06 З 4 40 км ясно +17.0 +9.2 60 +17 +22 1026.1 1011.8
08 24.06 З 5 35 км ясно +17.7 +6.0 46 +17 +23 1026.2 1012.0
09 24.06 З 7 40 км ясно +18.7 +5.2 41 +18 +22 1026.3 1012.1
10 24.06 З 6 35 км 1/1 1500 м
[]
+18.6 +5.1 41 +18 +23 1026.6 1012.4
11 24.06 З 5 30 км 1/1 1500 м
[]
+19.1 +4.5 38 +19 +26 1026.8 1012.6
12 24.06 СЗ 7 40 км 4/0 1500 м
[]
+19.3 +3.1 34 +19 +22 1027.1 1012.9
13 24.06 СЗ 6 35 км 1/1 1500 м
[]
+19.3 +2.7 33 +19 +23 1027.5 1013.3
14 24.06 З 6 35 км 4/4 1500 м
[]
+19.9 +4.0 35 +20 +22 1027.5 1013.3
15 24.06 З 6 40 км 6/0 1500 м
[]
+19.4 +4.0 36 +19 +21 1027.6 1013.4
16 24.06 З 5 45 км 6/6 1500 м
[]
+18.9 +4.7 39 +19 +20 1027.7 1013.5
17 24.06 З 4 45 км 4/4 1500 м
[]
+18.9 +5.7 42 +19 +20 1027.8 1013.6
18 24.06 З 4 45 км ясно +17.8 +5.1 43 +18 +18 1028.0 1013.7 +15.8 +19.9
19 24.06 З 4 45 км ясно +17.0 +4.4 43 +17 +17 1028.6 1014.3
20 24.06 З 3 50 км 1/0
[]
+15.4 +4.8 49 +15 +15 1029.2 1014.8
21 24.06 СЗ 2 50 км ясно +14.1 +5.2 55 +14 +14 1029.7 1015.2
22 24.06 З 2 50 км ясно +12.0 +5.6 65 +11 +11 1030.0 1015.4
23 24.06 штиль 0 45 км 4/0
[]
+9.3 +6.2 81 +9 +9 1030.2 1015.5
00 25.06 штиль 0 35 км ясно +7.9 +5.7 86 +7 +7 1030.4 1015.6
01 25.06 штиль 0 45 км 6/0
[]
+7.9 +6.7 92 +7 +7 1030.4 1015.6
02 25.06 штиль 0 45 км 1/0
[]
+6.9 +6.3 96 +6 +6 1030.4 1015.6
03 25.06 штиль 0 35 км 9/0
[]
+11.5 +8.7 83 +11 +12 1030.3 1015.7
04 25.06 З 2 35 км 6/6
[]
+12.1 +8.0 76 +11 +12 1030.5 1015.9
05 25.06 СЗ 2 40 км 9/9
[]
+12.6 +8.7 77 +12 +12 1030.6 1016.0
06 25.06 штиль 0 35 км 4/1
[]
+14.4 +6.8 60 +14 +20 1030.3 1015.8 +6.7 +17.8
07 25.06 ЮЗ 2 35 км 6/6
[]
+15.8 +7.3 57 +16 +19 1029.7 1015.3
08 25.06 ЮЗ 3 35 км 1/0
[]
+16.5 +6.6 52 +16 +25 1029.3 1015.0
09 25.06 ЮЗ 5 40 км ясно +18.3 +6.5 46 +18 +25 1028.9 1014.7
10 25.06 З 6 30 км ясно +19.0 +5.8 42 +19 +24 1028.6 1014.4
11 25.06 З 4 45 км ясно +20.9 +8.6 45 +22 +32 комфорт 1027.7 1013.6

 

Местоположение метеостанции Аэропорт Пирккала (Финляндия): широта 61.42 долгота 23.62 высота над уровнем моря 112 м.

В архиве по умолчанию представлена погода в Аэропорту Пирккала за последнюю неделю. Архивные данные за месяц целиком и за предыдущие месяцы, начиная с января 2011 года, Вы можете получить, выбрав интересующий диапазон дат из раскрывающегося списка и нажав кнопку "Ввод!".


*Определитесь, кто Вы:
робот инопланетянин человек

Внимание! Время в таблицах - всемирное. Для получения местного времени необходимо прибавить поправку, которая равна 1 ч.

Смотрите также архив погоды в соседних городах и на ближайших метеорологических станциях:

Погода в Тампере (Финляндия) (9 км)
Погода в Тампере (Финляндия) (12 км)
Погода на Острове Сиилинкари (Финляндия) (13 км)
Погода в Лепаа (Финляндия) (51 км)
Погода в Юупайоки Хююеяля (Финляндия) (59 км)
Погода в Халли (Финляндия) (64 км)
Погода в Хямеэнлинна (Финляндия) (66 км)
Погода в Йокиойнене (Финляндия) (68 км)
Погода в Кокемяки (Финляндия) (70 км)
Погода в Ниинисало (Финляндия) (77 км)

Пояснения к столбцам:

Ветер - указаны скорость ветра в м/с - средняя за 10 мин, порывы в срок и между сроками (в фигурных скобках) и направление, откуда дует ветер: С - северный, СВ - северо-восточный, В - восточный, ЮВ - юго-восточный, Ю - южный, ЮЗ - юго-западный, З - западный, СЗ - северо-западный.
Видимость - горизонтальная дальность видимости в метрах или километрах. При видимости от 1 до 10 км при отсутствии осадков обычно наблюдается дымка, при ухудшении видимости до 1 км и менее - туман. В сухую погоду видимость может ухудшаться дымом, пылью или мглою.
Явления - указаны атмосферные явления, наблюдавшиеся в срок или в последний час перед сроком; фигурными скобками обозначены явления, наблюдавшиеся между сроками (за 1-3 часа до срока); квадратными скобками обозначены град или гололедные отложения с указанием их диаметра в мм.
Облачность - указаны через наклонную черту общая и нижняя облачность в баллах и высота нижней границы облаков в метрах; квадратными скобками обозначены формы облаков: Ci - перистые, Cs - перисто-слоистые, Cc - перисто-кучевые, Ac - высококучевые, As - высокослоистые, Sc - слоисто-кучевые, Ns - слоисто-дождевые, Cu - кучевые, Cb - кучево-дождевые. Подробнее классификацию облаков см. в Атласе облаков (PDF).
T - Температура воздуха - температура, измеренная на высоте 2 м над землей.
Td - Температура точки росы - температура, при понижении до которой содержащийся в воздухе водяной пар достигнет насыщения.
f - Относительная влажность воздуха - влажноcть воздуха, измеренная на высоте 2 м над землей.
Te - Эффективная температура - температура, которую ощущает одетый по сезону человек в тени. Характеристика душности погоды. При расчете учитывается влияние влажности воздуха и скорости ветра на теплоощущения человека.
Tes - Эффективная температура на солнце - температура, которую ощущает человек, с поправкой на солнечный нагрев. Характеристика знойности погоды. Зависит от высоты солнца над горизонтом, облачности и скорости ветра. Ночью, в пасмурную погоду, а также при ветре 12 м/с и более поправка равна нулю.
P - Атмосферное давление - приведенное к уровню моря атмосферное давление.
Po - Атмосферное давление - измеренное на уровне метеостанции атмосферное давление.
Tmin - Минимальная температура - минимум температуры воздуха на высоте 2 м над землей.
Tmax - Максимальная температура - максимум температуры воздуха на высоте 2 м над землей.
R - Количество осадков - Количество выпавших осадков за период времени, мм. При наведении курсора мыши на число - период времени, за который выпало указанное количество осадков.
R24 - Количество осадков - Количество выпавших осадков за 24 часа, мм.
S - Снежный покров - Высота снежного покрова, см. При наведении курсора мыши на число - состояние снежного покрова и степень покрытия местности в баллах.